Time,TemperatureF,DewpointF,PressureIn,WindDirection,WindDirectionDegrees,WindSpeedMPH,WindSpeedGustMPH,Humidity,HourlyPrecipIn,Conditions,Clouds,dailyrainin,SoftwareType,DateUTC
2013-03-29 00:00:00,32.4,26.6,30.32,East,79,0.0,0.0,79,0.00,,,0.00,Wunderground v.1.15,2013-03-29 04:00:00,
2013-03-29 00:05:00,32.1,26.0,30.32,East,79,0.0,0.0,78,0.00,,,0.00,Wunderground v.1.15,2013-03-29 04:05:00,
2013-03-29 00:10:00,31.9,26.1,30.32,East,79,0.0,0.0,79,0.00,,,0.00,Wunderground v.1.15,2013-03-29 04:10:00,
2013-03-29 00:15:00,31.7,25.9,30.32,East,79,0.0,0.0,79,0.00,,,0.00,Wunderground v.1.15,2013-03-29 04:15:00,
2013-03-29 00:20:00,31.5,25.7,30.32,East,79,0.0,0.0,79,0.00,,,0.00,Wunderground v.1.15,2013-03-29 04:20:00,
2013-03-29 00:25:00,31.3,25.8,30.32,East,79,0.0,0.0,80,0.00,,,0.00,Wunderground v.1.15,2013-03-29 04:25:00,
2013-03-29 00:30:00,31.0,25.6,30.32,East,79,0.0,0.0,80,0.00,,,0.00,Wunderground v.1.15,2013-03-29 04:30:00,
2013-03-29 00:35:00,30.8,26.0,30.32,East,79,0.0,0.0,82,0.00,,,0.00,Wunderground v.1.15,2013-03-29 04:35:00,
2013-03-29 00:40:00,30.6,25.5,30.32,East,79,0.0,0.0,81,0.00,,,0.00,Wunderground v.1.15,2013-03-29 04:40:00,
2013-03-29 00:45:00,30.5,25.7,30.32,East,79,0.0,0.0,82,0.00,,,0.00,Wunderground v.1.15,2013-03-29 04:45:00,
2013-03-29 00:50:00,30.5,25.7,30.32,East,79,0.0,0.0,82,0.00,,,0.00,Wunderground v.1.15,2013-03-29 04:50:00,
2013-03-29 00:55:00,30.2,25.4,30.32,East,79,0.0,0.0,82,0.00,,,0.00,Wunderground v.1.15,2013-03-29 04:55:00,
2013-03-29 01:00:00,30.0,25.5,30.32,East,79,0.0,0.0,83,0.00,,,0.00,Wunderground v.1.15,2013-03-29 05:00:00,
2013-03-29 01:05:00,29.7,25.2,30.32,East,79,0.0,0.0,83,0.00,,,0.00,Wunderground v.1.15,2013-03-29 05:05:00,
2013-03-29 01:10:00,29.5,25.0,30.32,East,79,0.0,0.0,83,0.00,,,0.00,Wunderground v.1.15,2013-03-29 05:10:00,
2013-03-29 01:15:00,29.2,25.0,30.32,East,79,0.0,0.0,84,0.00,,,0.00,Wunderground v.1.15,2013-03-29 05:15:00,
2013-03-29 01:20:00,29.2,25.0,30.32,East,79,0.0,0.0,84,0.00,,,0.00,Wunderground v.1.15,2013-03-29 05:20:00,
2013-03-29 01:25:00,29.0,24.8,30.32,East,79,0.0,0.0,84,0.00,,,0.00,Wunderground v.1.15,2013-03-29 05:25:00,
2013-03-29 01:30:00,28.8,24.6,30.32,East,79,0.0,0.0,84,0.00,,,0.00,Wunderground v.1.15,2013-03-29 05:30:00,
2013-03-29 01:35:00,28.5,24.3,30.32,East,79,0.0,0.0,84,0.00,,,0.00,Wunderground v.1.15,2013-03-29 05:35:00,
2013-03-29 01:40:00,28.3,24.4,30.32,East,79,0.0,0.0,85,0.00,,,0.00,Wunderground v.1.15,2013-03-29 05:40:00,
2013-03-29 01:45:00,28.1,24.2,30.32,East,79,0.0,0.0,85,0.00,,,0.00,Wunderground v.1.15,2013-03-29 05:45:00,
2013-03-29 01:50:00,28.1,24.5,30.32,East,79,0.0,0.0,86,0.00,,,0.00,Wunderground v.1.15,2013-03-29 05:50:00,
2013-03-29 01:55:00,28.3,24.6,30.32,East,79,0.0,0.0,86,0.00,,,0.00,Wunderground v.1.15,2013-03-29 05:55:00,
2013-03-29 02:00:00,28.3,24.4,30.32,East,79,0.0,0.0,85,0.00,,,0.00,Wunderground v.1.15,2013-03-29 06:00:00,
2013-03-29 02:05:00,28.2,24.6,30.32,East,79,0.0,0.0,86,0.00,,,0.00,Wunderground v.1.15,2013-03-29 06:05:00,
2013-03-29 02:10:00,28.0,24.4,30.32,East,79,0.0,0.0,86,0.00,,,0.00,Wunderground v.1.15,2013-03-29 06:10:00,
2013-03-29 02:15:00,27.9,24.5,30.32,ENE,67,0.0,0.0,87,0.00,,,0.00,Wunderground v.1.15,2013-03-29 06:15:00,
2013-03-29 02:20:00,27.8,24.2,30.32,ENE,67,0.0,0.0,86,0.00,,,0.00,Wunderground v.1.15,2013-03-29 06:20:00,
2013-03-29 02:25:00,27.9,24.3,30.32,ENE,67,0.0,0.0,86,0.00,,,0.00,Wunderground v.1.15,2013-03-29 06:25:00,
2013-03-29 02:30:00,27.8,23.9,30.32,ENE,67,0.0,0.0,85,0.00,,,0.00,Wunderground v.1.15,2013-03-29 06:30:00,
2013-03-29 02:35:00,27.7,23.8,30.32,ENE,67,0.0,0.0,85,0.00,,,0.00,Wunderground v.1.15,2013-03-29 06:35:00,
2013-03-29 02:40:00,27.6,24.0,30.32,ENE,67,0.0,0.0,86,0.00,,,0.00,Wunderground v.1.15,2013-03-29 06:40:00,
2013-03-29 02:45:00,27.5,24.1,30.32,ENE,67,0.0,0.0,87,0.00,,,0.00,Wunderground v.1.15,2013-03-29 06:45:00,
2013-03-29 02:50:00,27.3,23.9,30.32,ENE,67,0.0,0.0,87,0.00,,,0.00,Wunderground v.1.15,2013-03-29 06:50:00,
2013-03-29 02:55:00,27.0,23.6,30.32,ENE,67,0.0,0.0,87,0.00,,,0.00,Wunderground v.1.15,2013-03-29 06:55:00,
2013-03-29 03:00:00,26.9,23.5,30.32,ENE,67,0.0,0.0,87,0.00,,,0.00,Wunderground v.1.15,2013-03-29 07:00:00,
2013-03-29 03:05:00,26.7,23.4,30.32,ENE,67,0.0,0.0,87,0.00,,,0.00,Wunderground v.1.15,2013-03-29 07:05:00,
2013-03-29 03:10:00,26.3,23.0,30.33,ENE,67,0.0,0.0,87,0.00,,,0.00,Wunderground v.1.15,2013-03-29 07:10:00,
2013-03-29 03:15:00,26.2,23.4,30.33,ENE,67,0.0,0.0,89,0.00,,,0.00,Wunderground v.1.15,2013-03-29 07:15:00,
2013-03-29 03:20:00,26.2,23.4,30.32,ENE,67,0.0,0.0,89,0.00,,,0.00,Wunderground v.1.15,2013-03-29 07:20:00,
2013-03-29 03:25:00,26.1,23.3,30.32,ENE,67,0.0,0.0,89,0.00,,,0.00,Wunderground v.1.15,2013-03-29 07:25:00,
2013-03-29 03:30:00,25.9,23.1,30.32,ENE,67,0.0,0.0,89,0.00,,,0.00,Wunderground v.1.15,2013-03-29 07:30:00,
2013-03-29 03:35:00,25.8,23.0,30.32,ENE,67,0.0,0.0,89,0.00,,,0.00,Wunderground v.1.15,2013-03-29 07:35:00,
2013-03-29 03:40:00,25.7,23.2,30.32,ENE,67,0.0,0.0,90,0.00,,,0.00,Wunderground v.1.15,2013-03-29 07:40:00,
2013-03-29 03:45:00,25.6,23.1,30.32,ENE,67,0.0,0.0,90,0.00,,,0.00,Wunderground v.1.15,2013-03-29 07:45:00,
2013-03-29 03:50:00,25.8,23.5,30.32,ENE,67,0.0,0.0,91,0.00,,,0.00,Wunderground v.1.15,2013-03-29 07:50:00,
2013-03-29 03:55:00,25.9,23.4,30.32,ENE,67,0.0,0.0,90,0.00,,,0.00,Wunderground v.1.15,2013-03-29 07:55:00,
2013-03-29 03:59:00,26.0,23.5,30.32,ENE,67,0.0,0.0,90,0.00,,,0.00,Wunderground v.1.15,2013-03-29 07:59:00,
2013-03-29 04:04:00,25.9,23.4,30.32,ENE,67,0.0,0.0,90,0.00,,,0.00,Wunderground v.1.15,2013-03-29 08:04:00,
2013-03-29 04:09:00,25.8,23.3,30.32,ENE,67,0.0,0.0,90,0.00,,,0.00,Wunderground v.1.15,2013-03-29 08:09:00,
2013-03-29 04:14:00,25.7,23.2,30.32,ENE,67,0.0,0.0,90,0.00,,,0.00,Wunderground v.1.15,2013-03-29 08:14:00,
2013-03-29 04:19:00,25.6,23.1,30.32,ENE,67,0.0,0.0,90,0.00,,,0.00,Wunderground v.1.15,2013-03-29 08:19:00,
2013-03-29 04:24:00,25.5,23.0,30.32,ENE,67,0.0,0.0,90,0.00,,,0.00,Wunderground v.1.15,2013-03-29 08:24:00,
2013-03-29 04:29:00,25.3,22.8,30.32,ENE,67,0.0,0.0,90,0.00,,,0.00,Wunderground v.1.15,2013-03-29 08:29:00,
2013-03-29 04:34:00,25.2,22.7,30.32,ENE,67,0.0,0.0,90,0.00,,,0.00,Wunderground v.1.15,2013-03-29 08:34:00,
2013-03-29 04:39:00,25.4,23.1,30.32,ENE,67,0.0,0.0,91,0.00,,,0.00,Wunderground v.1.15,2013-03-29 08:39:00,
2013-03-29 04:44:00,25.2,22.7,30.32,ENE,67,0.0,0.0,90,0.00,,,0.00,Wunderground v.1.15,2013-03-29 08:44:00,
2013-03-29 04:49:00,25.1,22.6,30.32,ENE,67,0.0,0.0,90,0.00,,,0.00,Wunderground v.1.15,2013-03-29 08:49:00,
2013-03-29 04:54:00,25.0,22.5,30.32,ENE,67,0.0,0.0,90,0.00,,,0.00,Wunderground v.1.15,2013-03-29 08:54:00,
2013-03-29 04:59:00,25.0,22.5,30.32,ENE,67,0.0,0.0,90,0.00,,,0.00,Wunderground v.1.15,2013-03-29 08:59:00,
2013-03-29 05:04:00,25.0,22.5,30.32,ENE,67,0.0,0.0,90,0.00,,,0.00,Wunderground v.1.15,2013-03-29 09:04:00,
2013-03-29 05:09:00,24.8,22.3,30.32,ENE,67,0.0,0.0,90,0.00,,,0.00,Wunderground v.1.15,2013-03-29 09:09:00,
2013-03-29 05:14:00,24.8,22.3,30.32,ENE,67,0.0,0.0,90,0.00,,,0.00,Wunderground v.1.15,2013-03-29 09:14:00,
2013-03-29 05:19:00,24.8,22.5,30.32,ENE,67,0.0,0.0,91,0.00,,,0.00,Wunderground v.1.15,2013-03-29 09:19:00,
2013-03-29 05:24:00,24.9,22.6,30.32,ENE,67,0.0,0.0,91,0.00,,,0.00,Wunderground v.1.15,2013-03-29 09:24:00,
2013-03-29 05:29:00,24.9,22.6,30.32,ENE,67,0.0,0.0,91,0.00,,,0.00,Wunderground v.1.15,2013-03-29 09:29:00,
2013-03-29 05:34:00,24.8,22.5,30.32,ENE,67,0.0,0.0,91,0.00,,,0.00,Wunderground v.1.15,2013-03-29 09:34:00,
2013-03-29 05:39:00,24.9,22.6,30.32,ENE,67,0.0,0.0,91,0.00,,,0.00,Wunderground v.1.15,2013-03-29 09:39:00,
2013-03-29 05:44:00,24.9,22.6,30.32,ENE,67,0.0,0.0,91,0.00,,,0.00,Wunderground v.1.15,2013-03-29 09:44:00,
2013-03-29 05:49:00,24.7,22.4,30.32,ENE,67,0.0,0.0,91,0.00,,,0.00,Wunderground v.1.15,2013-03-29 09:49:00,
2013-03-29 05:54:00,24.6,22.6,30.33,ENE,67,0.0,0.0,92,0.00,,,0.00,Wunderground v.1.15,2013-03-29 09:54:00,
2013-03-29 05:59:00,24.6,22.6,30.33,ENE,67,0.0,0.0,92,0.00,,,0.00,Wunderground v.1.15,2013-03-29 09:59:00,
2013-03-29 06:04:00,24.5,22.2,30.33,ENE,67,0.0,0.0,91,0.00,,,0.00,Wunderground v.1.15,2013-03-29 10:04:00,
2013-03-29 06:09:00,24.3,22.1,30.33,ENE,67,0.0,0.0,91,0.00,,,0.00,Wunderground v.1.15,2013-03-29 10:09:00,
2013-03-29 06:14:00,24.1,21.9,30.33,ENE,67,0.0,0.0,91,0.00,,,0.00,Wunderground v.1.15,2013-03-29 10:14:00,
2013-03-29 06:19:00,23.9,21.9,30.33,ENE,67,0.0,0.0,92,0.00,,,0.00,Wunderground v.1.15,2013-03-29 10:19:00,
2013-03-29 06:24:00,23.8,21.8,30.33,ENE,67,0.0,0.0,92,0.00,,,0.00,Wunderground v.1.15,2013-03-29 10:24:00,
2013-03-29 06:29:00,23.8,21.8,30.33,ENE,67,0.0,0.0,92,0.00,,,0.00,Wunderground v.1.15,2013-03-29 10:29:00,
2013-03-29 06:34:00,23.6,21.6,30.33,ENE,67,0.0,0.0,92,0.00,,,0.00,Wunderground v.1.15,2013-03-29 10:34:00,
2013-03-29 06:39:00,23.4,21.4,30.33,ENE,67,0.0,0.0,92,0.00,,,0.00,Wunderground v.1.15,2013-03-29 10:39:00,
2013-03-29 06:44:00,23.6,21.9,30.34,ENE,67,0.0,0.0,93,0.00,,,0.00,Wunderground v.1.15,2013-03-29 10:44:00,
2013-03-29 06:49:00,23.6,21.9,30.34,ENE,67,0.0,0.0,93,0.00,,,0.00,Wunderground v.1.15,2013-03-29 10:49:00,
2013-03-29 06:54:00,23.5,21.8,30.34,ENE,67,0.0,0.0,93,0.00,,,0.00,Wunderground v.1.15,2013-03-29 10:54:00,
2013-03-29 06:59:00,23.3,21.6,30.34,ENE,67,0.0,0.0,93,0.00,,,0.00,Wunderground v.1.15,2013-03-29 10:59:00,
2013-03-29 07:04:00,23.3,21.6,30.34,ENE,67,0.0,0.0,93,0.00,,,0.00,Wunderground v.1.15,2013-03-29 11:04:00,
2013-03-29 07:09:00,23.5,22.0,30.34,ENE,67,0.0,0.0,94,0.00,,,0.00,Wunderground v.1.15,2013-03-29 11:09:00,
2013-03-29 07:14:00,23.6,22.1,30.35,ENE,67,0.0,0.0,94,0.00,,,0.00,Wunderground v.1.15,2013-03-29 11:14:00,
2013-03-29 07:19:00,23.6,22.1,30.35,ENE,67,0.0,0.0,94,0.00,,,0.00,Wunderground v.1.15,2013-03-29 11:19:00,
2013-03-29 07:24:00,23.5,21.8,30.35,ENE,67,0.0,0.0,93,0.00,,,0.00,Wunderground v.1.15,2013-03-29 11:24:00,
2013-03-29 07:29:00,23.4,21.7,30.35,ENE,67,0.0,0.0,93,0.00,,,0.00,Wunderground v.1.15,2013-03-29 11:29:00,
2013-03-29 07:34:00,23.5,22.0,30.35,ENE,67,0.0,0.0,94,0.00,,,0.00,Wunderground v.1.15,2013-03-29 11:34:00,
2013-03-29 07:39:00,23.7,22.2,30.36,ENE,67,0.0,0.0,94,0.00,,,0.00,Wunderground v.1.15,2013-03-29 11:39:00,
2013-03-29 07:44:00,23.8,22.3,30.36,ENE,67,0.0,0.0,94,0.00,,,0.00,Wunderground v.1.15,2013-03-29 11:44:00,
2013-03-29 07:49:00,24.0,22.5,30.36,ENE,65,0.0,0.0,94,0.00,,,0.00,Wunderground v.1.15,2013-03-29 11:49:00,
2013-03-29 07:54:00,24.7,23.2,30.36,ENE,65,0.0,0.0,94,0.00,,,0.00,Wunderground v.1.15,2013-03-29 11:54:00,
2013-03-29 07:59:00,25.9,24.4,30.36,ENE,65,0.0,0.0,94,0.00,,,0.00,Wunderground v.1.15,2013-03-29 11:59:00,
2013-03-29 08:04:00,27.6,26.4,30.36,ENE,65,0.0,0.0,95,0.00,,,0.00,Wunderground v.1.15,2013-03-29 12:04:00,
2013-03-29 08:09:00,28.2,26.2,30.36,ENE,65,0.0,0.0,92,0.00,,,0.00,Wunderground v.1.15,2013-03-29 12:09:00,
2013-03-29 08:14:00,28.5,25.9,30.36,ENE,65,0.0,0.0,90,0.00,,,0.00,Wunderground v.1.15,2013-03-29 12:14:00,
2013-03-29 08:19:00,29.5,26.9,30.37,ENE,65,0.0,0.0,90,0.00,,,0.00,Wunderground v.1.15,2013-03-29 12:19:00,
2013-03-29 08:24:00,31.0,27.6,30.36,ENE,65,0.0,0.0,87,0.00,,,0.00,Wunderground v.1.15,2013-03-29 12:24:00,
2013-03-29 08:29:00,32.6,28.3,30.36,ENE,65,0.0,0.0,84,0.00,,,0.00,Wunderground v.1.15,2013-03-29 12:29:00,
2013-03-29 08:34:00,34.2,29.0,30.36,ENE,65,0.0,0.0,81,0.00,,,0.00,Wunderground v.1.15,2013-03-29 12:34:00,
2013-03-29 08:39:00,35.8,29.0,30.36,ENE,65,0.0,0.0,76,0.00,,,0.00,Wunderground v.1.15,2013-03-29 12:39:00,
2013-03-29 08:44:00,37.2,29.3,30.36,ENE,65,0.0,0.0,73,0.00,,,0.00,Wunderground v.1.15,2013-03-29 12:44:00,
2013-03-29 08:49:00,38.3,30.1,30.36,ENE,65,0.0,0.0,72,0.00,,,0.00,Wunderground v.1.15,2013-03-29 12:49:00,
2013-03-29 08:54:00,39.3,29.6,30.36,ENE,65,0.0,0.0,68,0.00,,,0.00,Wunderground v.1.15,2013-03-29 12:54:00,
2013-03-29 08:59:00,40.0,30.3,30.36,ENE,65,0.0,0.0,68,0.00,,,0.00,Wunderground v.1.15,2013-03-29 12:59:00,
2013-03-29 09:04:00,40.7,31.0,30.36,ENE,65,0.0,0.0,68,0.00,,,0.00,Wunderground v.1.15,2013-03-29 13:04:00,
2013-03-29 09:09:00,42.3,32.1,30.36,ENE,65,0.0,0.0,67,0.00,,,0.00,Wunderground v.1.15,2013-03-29 13:09:00,
2013-03-29 09:14:00,43.9,32.5,30.36,ENE,65,0.0,0.0,64,0.00,,,0.00,Wunderground v.1.15,2013-03-29 13:14:00,
2013-03-29 09:19:00,44.2,32.4,30.36,ENE,68,0.0,0.0,63,0.00,,,0.00,Wunderground v.1.15,2013-03-29 13:19:00,
2013-03-29 09:24:00,44.9,31.8,30.36,NNW,343,0.0,2.0,60,0.00,,,0.00,Wunderground v.1.15,2013-03-29 13:24:00,
2013-03-29 09:29:00,45.7,31.8,30.35,North,356,1.0,1.0,58,0.00,,,0.00,Wunderground v.1.15,2013-03-29 13:29:00,
2013-03-29 09:34:00,46.6,31.3,30.35,WNW,297,0.0,2.0,55,0.00,,,0.00,Wunderground v.1.15,2013-03-29 13:34:00,
2013-03-29 09:39:00,47.1,31.3,30.35,North,9,1.0,1.0,54,0.00,,,0.00,Wunderground v.1.15,2013-03-29 13:39:00,
2013-03-29 09:44:00,47.5,29.3,30.35,NNW,330,2.0,4.0,49,0.00,,,0.00,Wunderground v.1.15,2013-03-29 13:44:00,
2013-03-29 09:49:00,47.5,29.3,30.35,West,271,1.0,1.0,49,0.00,,,0.00,Wunderground v.1.15,2013-03-29 13:49:00,
2013-03-29 09:54:00,47.6,28.9,30.35,WNW,294,0.0,5.0,48,0.00,,,0.00,Wunderground v.1.15,2013-03-29 13:54:00,
2013-03-29 09:59:00,48.1,29.8,30.35,WNW,298,1.0,1.0,49,0.00,,,0.00,Wunderground v.1.15,2013-03-29 13:59:00,
2013-03-29 10:04:00,48.4,28.0,30.34,WSW,255,3.0,5.0,45,0.00,,,0.00,Wunderground v.1.15,2013-03-29 14:04:00,
2013-03-29 10:09:00,48.5,29.7,30.34,WNW,290,1.0,2.0,48,0.00,,,0.00,Wunderground v.1.15,2013-03-29 14:09:00,
2013-03-29 10:14:00,48.7,28.8,30.34,West,264,1.0,5.0,46,0.00,,,0.00,Wunderground v.1.15,2013-03-29 14:14:00,
2013-03-29 10:19:00,49.0,28.0,30.35,West,270,3.0,3.0,44,0.00,,,0.00,Wunderground v.1.15,2013-03-29 14:19:00,
2013-03-29 10:24:00,48.8,28.4,30.34,WSW,256,1.0,5.0,45,0.00,,,0.00,Wunderground v.1.15,2013-03-29 14:24:00,
2013-03-29 10:29:00,49.6,29.1,30.35,West,260,3.0,3.0,45,0.00,,,0.00,Wunderground v.1.15,2013-03-29 14:29:00,
2013-03-29 10:34:00,49.4,28.4,30.35,South,190,0.0,5.0,44,0.00,,,0.00,Wunderground v.1.15,2013-03-29 14:34:00,
2013-03-29 10:39:00,49.5,27.3,30.35,NNW,343,0.0,2.0,42,0.00,,,0.00,Wunderground v.1.15,2013-03-29 14:39:00,
2013-03-29 10:44:00,49.6,27.4,30.35,West,279,2.0,6.0,42,0.00,,,0.00,Wunderground v.1.15,2013-03-29 14:44:00,
2013-03-29 10:49:00,50.1,29.6,30.35,North,11,0.0,2.0,45,0.00,,,0.00,Wunderground v.1.15,2013-03-29 14:49:00,
2013-03-29 10:54:00,50.7,27.2,30.35,West,264,1.0,5.0,40,0.00,,,0.00,Wunderground v.1.15,2013-03-29 14:54:00,
2013-03-29 10:59:00,50.6,27.7,30.35,West,279,0.0,2.0,41,0.00,,,0.00,Wunderground v.1.15,2013-03-29 14:59:00,
2013-03-29 11:04:00,50.8,26.7,30.35,SW,235,0.0,2.0,39,0.00,,,0.00,Wunderground v.1.15,2013-03-29 15:04:00,
2013-03-29 11:09:00,51.0,28.1,30.35,NE,46,3.0,4.0,41,0.00,,,0.00,Wunderground v.1.15,2013-03-29 15:09:00,
2013-03-29 11:14:00,51.2,26.4,30.35,NE,45,2.0,6.0,38,0.00,,,0.00,Wunderground v.1.15,2013-03-29 15:14:00,
2013-03-29 11:19:00,51.2,27.7,30.34,NE,51,3.0,4.0,40,0.00,,,0.00,Wunderground v.1.15,2013-03-29 15:19:00,
2013-03-29 11:24:00,51.5,27.3,30.34,NE,51,4.0,8.0,39,0.00,,,0.00,Wunderground v.1.15,2013-03-29 15:24:00,
2013-03-29 11:29:00,51.8,28.2,30.34,ENE,72,2.0,3.0,40,0.00,,,0.00,Wunderground v.1.15,2013-03-29 15:29:00,
2013-03-29 11:34:00,52.3,29.3,30.34,NE,41,2.0,4.0,41,0.00,,,0.00,Wunderground v.1.15,2013-03-29 15:34:00,
2013-03-29 11:39:00,52.0,27.8,30.34,NE,43,0.0,2.0,39,0.00,,,0.00,Wunderground v.1.15,2013-03-29 15:39:00,
2013-03-29 11:44:00,51.8,27.6,30.34,SE,142,1.0,4.0,39,0.00,,,0.00,Wunderground v.1.15,2013-03-29 15:44:00,
2013-03-29 11:49:00,51.6,26.8,30.33,SW,221,6.0,6.0,38,0.00,,,0.00,Wunderground v.1.15,2013-03-29 15:49:00,
2013-03-29 11:54:00,51.6,27.4,30.33,SE,127,1.0,6.0,39,0.00,,,0.00,Wunderground v.1.15,2013-03-29 15:54:00,
2013-03-29 11:59:00,51.7,26.9,30.33,WSW,242,2.0,6.0,38,0.00,,,0.00,Wunderground v.1.15,2013-03-29 15:59:00,
2013-03-29 12:04:00,52.3,27.4,30.33,NNW,338,1.0,6.0,38,0.00,,,0.00,Wunderground v.1.15,2013-03-29 16:04:00,
2013-03-29 12:09:00,52.5,26.9,30.33,WSW,248,4.0,4.0,37,0.00,,,0.00,Wunderground v.1.15,2013-03-29 16:09:00,
2013-03-29 12:14:00,52.5,27.6,30.32,SSW,205,3.0,8.0,38,0.00,,,0.00,Wunderground v.1.15,2013-03-29 16:14:00,
2013-03-29 12:19:00,52.8,27.2,30.32,West,275,2.0,3.0,37,0.00,,,0.00,Wunderground v.1.15,2013-03-29 16:19:00,
2013-03-29 12:24:00,53.2,28.2,30.31,NW,322,2.0,4.0,38,0.00,,,0.00,Wunderground v.1.15,2013-03-29 16:24:00,
2013-03-29 12:29:00,53.7,28.7,30.31,SW,218,4.0,5.0,38,0.00,,,0.00,Wunderground v.1.15,2013-03-29 16:29:00,
2013-03-29 12:34:00,54.0,28.3,30.30,South,176,2.0,6.0,37,0.00,,,0.00,Wunderground v.1.15,2013-03-29 16:34:00,
2013-03-29 12:39:00,55.1,30.6,30.31,SW,228,3.0,9.0,39,0.00,,,0.00,Wunderground v.1.15,2013-03-29 16:39:00,
2013-03-29 12:44:00,54.4,27.3,30.30,SW,225,3.0,7.0,35,0.00,,,0.00,Wunderground v.1.15,2013-03-29 16:44:00,
2013-03-29 12:49:00,54.5,28.1,30.30,East,84,0.0,8.0,36,0.00,,,0.00,Wunderground v.1.15,2013-03-29 16:49:00,
2013-03-29 12:54:00,55.1,28.6,30.29,ENE,63,1.0,3.0,36,0.00,,,0.00,Wunderground v.1.15,2013-03-29 16:54:00,
2013-03-29 12:59:00,55.8,29.2,30.29,West,264,0.0,4.0,36,0.00,,,0.00,Wunderground v.1.15,2013-03-29 16:59:00,
2013-03-29 13:04:00,55.6,26.9,30.29,West,274,7.0,7.0,33,0.00,,,0.00,Wunderground v.1.15,2013-03-29 17:04:00,
2013-03-29 13:09:00,54.8,26.9,30.29,NNW,336,5.0,10.0,34,0.00,,,0.00,Wunderground v.1.15,2013-03-29 17:09:00,
2013-03-29 13:14:00,54.9,27.0,30.29,NW,309,2.0,8.0,34,0.00,,,0.00,Wunderground v.1.15,2013-03-29 17:14:00,
2013-03-29 13:19:00,55.1,27.9,30.29,WNW,294,5.0,8.0,35,0.00,,,0.00,Wunderground v.1.15,2013-03-29 17:19:00,
2013-03-29 13:23:00,54.7,26.1,30.29,SW,225,2.0,9.0,33,0.00,,,0.00,Wunderground v.1.15,2013-03-29 17:23:00,
2013-03-29 13:28:00,54.7,27.6,30.28,WNW,292,1.0,10.0,35,0.00,,,0.00,Wunderground v.1.15,2013-03-29 17:28:00,
2013-03-29 13:33:00,55.1,25.7,30.28,WNW,295,3.0,7.0,32,0.00,,,0.00,Wunderground v.1.15,2013-03-29 17:33:00,
2013-03-29 13:38:00,54.7,25.4,30.28,West,259,5.0,10.0,32,0.00,,,0.00,Wunderground v.1.15,2013-03-29 17:38:00,
2013-03-29 13:44:00,54.6,26.0,30.28,NNW,329,6.0,7.0,33,0.00,,,0.00,Wunderground v.1.15,2013-03-29 17:44:00,
2013-03-29 13:49:00,55.2,26.6,30.28,WNW,294,2.0,3.0,33,0.00,,,0.00,Wunderground v.1.15,2013-03-29 17:49:00,
2013-03-29 13:53:00,56.0,27.3,30.27,WNW,295,4.0,8.0,33,0.00,,,0.00,Wunderground v.1.15,2013-03-29 17:53:00,
2013-03-29 13:58:00,55.8,28.5,30.27,West,276,2.0,3.0,35,0.00,,,0.00,Wunderground v.1.15,2013-03-29 17:58:00,
2013-03-29 14:03:00,55.7,27.0,30.27,West,264,4.0,7.0,33,0.00,,,0.00,Wunderground v.1.15,2013-03-29 18:03:00,
2013-03-29 14:08:00,55.4,25.2,30.26,West,267,3.0,4.0,31,0.00,,,0.00,Wunderground v.1.15,2013-03-29 18:08:00,
2013-03-29 14:13:00,55.5,25.3,30.26,NNE,13,3.0,9.0,31,0.00,,,0.00,Wunderground v.1.15,2013-03-29 18:13:00,
2013-03-29 14:18:00,56.1,25.8,30.26,North,352,4.0,4.0,31,0.00,,,0.00,Wunderground v.1.15,2013-03-29 18:18:00,
2013-03-29 14:23:00,56.4,26.9,30.25,NW,318,3.0,9.0,32,0.00,,,0.00,Wunderground v.1.15,2013-03-29 18:23:00,
2013-03-29 14:28:00,56.8,26.5,30.25,NNE,27,4.0,9.0,31,0.00,,,0.00,Wunderground v.1.15,2013-03-29 18:28:00,
2013-03-29 14:33:00,57.1,25.1,30.25,West,280,3.0,9.0,29,0.00,,,0.00,Wunderground v.1.15,2013-03-29 18:33:00,
2013-03-29 14:38:00,56.5,24.6,30.24,WSW,257,1.0,3.0,29,0.00,,,0.00,Wunderground v.1.15,2013-03-29 18:38:00,
2013-03-29 14:43:00,57.2,25.2,30.24,NNE,18,2.0,9.0,29,0.00,,,0.00,Wunderground v.1.15,2013-03-29 18:43:00,
2013-03-29 14:48:00,57.8,24.9,30.24,WNW,300,2.0,2.0,28,0.00,,,0.00,Wunderground v.1.15,2013-03-29 18:48:00,
2013-03-29 14:53:00,57.2,24.3,30.24,WSW,248,4.0,11.0,28,0.00,,,0.00,Wunderground v.1.15,2013-03-29 18:53:00,
2013-03-29 14:58:00,56.7,24.8,30.24,West,263,2.0,5.0,29,0.00,,,0.00,Wunderground v.1.15,2013-03-29 18:58:00,
2013-03-29 15:03:00,57.0,26.6,30.24,West,280,3.0,8.0,31,0.00,,,0.00,Wunderground v.1.15,2013-03-29 19:03:00,
2013-03-29 15:08:00,57.1,25.9,30.24,West,270,4.0,4.0,30,0.00,,,0.00,Wunderground v.1.15,2013-03-29 19:08:00,
2013-03-29 15:13:00,57.8,28.9,30.23,WSW,252,4.0,6.0,33,0.00,,,0.00,Wunderground v.1.15,2013-03-29 19:13:00,
2013-03-29 15:18:00,58.2,25.2,30.23,West,276,6.0,11.0,28,0.00,,,0.00,Wunderground v.1.15,2013-03-29 19:18:00,